Greenland, New Hampshire, United States (03840)
Lat: 43.04N, Lon: 70.83W
Wx Zone: NHZ014
Local Info
Past Weather Observations for Monday, October 20, 2014

NOTE: This archive is for the closest National Weather Service station to Greenland. Information may differ from the station used for current weather conditions.

Click here for Long-term Archive

Time Weather Temperature Dewpoint Humidity Pressure Winds Precip Visibility
23:58
Overcast
48°F / 9°C 37°F / 3°C 66% 30.01 in
(1016 mb)
SSE 1.2 mph
(SSE 2 kph)
- 10SM
22:58
Overcast
48°F / 9°C 37°F / 3°C 66% 30.01 in
(1016 mb)
S 3.5 mph
(S 6 kph)
- 10SM
21:58
Overcast
50°F / 10°C 36°F / 2°C 58% 30.01 in
(1016 mb)
SSE 5.8 mph
(SSE 9 kph)
- 10SM
20:58
Overcast
50°F / 10°C 36°F / 2°C 58% 29.98 in
(1015 mb)
SSE 4.6 mph
(SSE 7 kph)
- 10SM
19:58
Overcast
50°F / 10°C 36°F / 2°C 58% 29.98 in
(1015 mb)
SW 4.6 mph
(SW 7 kph)
- 10SM
18:58
Overcast
50°F / 10°C 34°F / 1°C 54% 29.98 in
(1015 mb)
S 3.5 mph
(S 6 kph)
- 10SM
17:58
Overcast
52°F / 11°C 32°F / 0°C 47% 29.98 in
(1015 mb)
SW 4.6 mph
(SW 7 kph)
- 10SM
16:58
Mostly Cloudy
52°F / 11°C 34°F / 1°C 50% 29.95 in
(1014 mb)
SW 5.8 mph
(SW 9 kph)
- 10SM
15:58
Mostly Cloudy
55°F / 13°C 32°F / 0°C 41% 29.95 in
(1014 mb)
SW 8.1 mph
(SW 13 kph)
- 10SM
14:58
Partly Cloudy
57°F / 14°C 30°F / -1°C 36% 29.95 in
(1014 mb)
SSW 8.1 mph
(SSW 13 kph)
- 10SM
13:58
Partly Cloudy
55°F / 13°C 30°F / -1°C 38% 29.95 in
(1014 mb)
SSW 6.9 mph
(SSW 11 kph)
- 10SM
12:58
Partly Cloudy
54°F / 12°C 28°F / -2°C 38% 29.95 in
(1014 mb)
SSW 10.4 mph
(SSW 17 kph)
- 10SM
11:58
Partly Cloudy
52°F / 11°C 28°F / -2°C 41% 29.98 in
(1015 mb)
W 11.5 mph
(W 19 kph)
- 10SM
10:58
Mostly Cloudy
48°F / 9°C 28°F / -2°C 46% 30.01 in
(1016 mb)
SSW 11.5 mph
(SSW 19 kph)
- 10SM
09:58
Mostly Cloudy
46°F / 8°C 27°F / -3°C 46% 30.01 in
(1016 mb)
SSW 11.5 mph
(SSW 19 kph)
- 10SM
08:58
Mostly Cloudy
45°F / 7°C 27°F / -3°C 49% 30.01 in
(1016 mb)
W 10.4 mph
(W 17 kph)
- 10SM
07:58
Mostly Cloudy
43°F / 6°C 27°F / -3°C 53% 30.01 in
(1016 mb)
SSW 11.5 mph
(SSW 19 kph)
- 10SM
06:58
Mostly Cloudy
39°F / 4°C 27°F / -3°C 61% 30.01 in
(1016 mb)
SSW 11.5 mph
(SSW 19 kph)
- 10SM
05:58
Mostly Cloudy
37°F / 3°C 25°F / -4°C 60% 29.98 in
(1015 mb)
SSW 10.4 mph
(SSW 17 kph)
- 10SM
04:58
Overcast
37°F / 3°C 27°F / -3°C 65% 29.98 in
(1015 mb)
SSW 8.1 mph
(SSW 13 kph)
- 10SM
03:58
Mostly Cloudy
37°F / 3°C 25°F / -4°C 60% 29.95 in
(1014 mb)
W 8.1 mph
(W 13 kph)
- 10SM
02:58
Mostly Cloudy
39°F / 4°C 27°F / -3°C 61% 29.95 in
(1014 mb)
W 11.5 mph
(W 19 kph)
- 10SM
01:58
Partly Cloudy
39°F / 4°C 27°F / -3°C 61% 29.95 in
(1014 mb)
W 12.7 mph
(W 20 kph)
- 10SM
00:58
Partly Cloudy
41°F / 5°C 27°F / -3°C 57% 29.95 in
(1014 mb)
W 11.5 mph
(W 19 kph)
- 10SM
Time Weather Temperature Dewpoint Humidity Pressure Winds Precip Visibility


Weather for websites

WeatherForYou.com, LLC is not responsible for any damages or problems caused by this service. Current weather conditions are obtained from the closest station including government and personal stations which may have varying degrees of accuracy. Weather forecasts are derived from the NOAA NDFD. Like all things, this site belongs to Jesus Christ... He just trusts me to maintain it. If you have any questions or comments email webmaster@weatherforyou.com

Copyright © 2014, WeatherForYou.com LLC. All rights reserved.